Year,Month,Day,Hour,Minute,Value (Times are PST for temperature in C)
2018,04,12,00,00,6.30
2018,04,12,00,01,6.30
2018,04,12,00,02,6.30
2018,04,12,00,03,6.30
2018,04,12,00,04,6.30
2018,04,12,00,05,6.30
2018,04,12,00,06,6.20
2018,04,12,00,07,6.20
2018,04,12,00,08,6.20
2018,04,12,00,09,6.20
2018,04,12,00,10,6.20
2018,04,12,00,11,6.20
2018,04,12,00,12,6.20
2018,04,12,00,13,6.20
2018,04,12,00,14,6.20
2018,04,12,00,15,6.20
2018,04,12,00,16,6.10
2018,04,12,00,17,6.20
2018,04,12,00,18,6.20
2018,04,12,00,19,6.20
2018,04,12,00,20,6.10
2018,04,12,00,21,6.10
2018,04,12,00,22,6.10
2018,04,12,00,23,6.10
2018,04,12,00,24,6.10
2018,04,12,00,25,6.10
2018,04,12,00,26,6.10
2018,04,12,00,27,6.10
2018,04,12,00,28,6.10
2018,04,12,00,29,6.10
2018,04,12,00,30,6.10
2018,04,12,00,31,6.10
2018,04,12,00,32,6.10
2018,04,12,00,33,6.00
2018,04,12,00,34,6.00
2018,04,12,00,35,6.00
2018,04,12,00,36,6.00
2018,04,12,00,37,6.00
2018,04,12,00,38,5.90
2018,04,12,00,39,5.90
2018,04,12,00,40,5.90
2018,04,12,00,41,5.90
2018,04,12,00,42,5.90
2018,04,12,00,43,5.90
2018,04,12,00,44,5.90
2018,04,12,00,45,5.90
2018,04,12,00,46,5.90
2018,04,12,00,47,5.90
2018,04,12,00,48,5.90
2018,04,12,00,49,5.90
2018,04,12,00,50,5.80
2018,04,12,00,51,5.90
2018,04,12,00,52,5.80
2018,04,12,00,53,5.90
2018,04,12,00,54,5.80
2018,04,12,00,55,5.80
2018,04,12,00,56,5.80
2018,04,12,00,57,5.80
2018,04,12,00,58,5.80
2018,04,12,00,59,5.80
2018,04,12,01,00,5.80
2018,04,12,01,01,5.80
2018,04,12,01,02,5.80
2018,04,12,01,03,5.80
2018,04,12,01,04,5.80
2018,04,12,01,05,5.80
2018,04,12,01,06,5.80
2018,04,12,01,07,5.80
2018,04,12,01,08,5.80
2018,04,12,01,09,5.80
2018,04,12,01,10,5.70
2018,04,12,01,11,5.70
2018,04,12,01,12,5.70
2018,04,12,01,13,5.60
2018,04,12,01,14,5.60
2018,04,12,01,15,5.50
2018,04,12,01,16,5.50
2018,04,12,01,17,5.40
2018,04,12,01,18,5.40
2018,04,12,01,19,5.40
2018,04,12,01,20,5.40
2018,04,12,01,21,5.40
2018,04,12,01,22,5.30
2018,04,12,01,23,5.30
2018,04,12,01,24,5.30
2018,04,12,01,25,5.30
2018,04,12,01,26,5.30
2018,04,12,01,27,5.30
2018,04,12,01,28,5.30
2018,04,12,01,29,5.30
2018,04,12,01,30,5.30
2018,04,12,01,31,5.30
2018,04,12,01,32,5.30
2018,04,12,01,33,5.30
2018,04,12,01,34,5.30
2018,04,12,01,35,5.30
2018,04,12,01,36,5.30
2018,04,12,01,37,5.20
2018,04,12,01,38,5.20
2018,04,12,01,39,5.20
2018,04,12,01,40,5.20
2018,04,12,01,41,5.20
2018,04,12,01,42,5.20
2018,04,12,01,43,5.20
2018,04,12,01,44,5.20
2018,04,12,01,45,5.20
2018,04,12,01,46,5.20
2018,04,12,01,47,5.20
2018,04,12,01,48,5.10
2018,04,12,01,49,5.10
2018,04,12,01,50,5.10
2018,04,12,01,51,5.10
2018,04,12,01,52,5.00
2018,04,12,01,53,5.00
2018,04,12,01,54,5.00
2018,04,12,01,55,4.90
2018,04,12,01,56,4.90
2018,04,12,01,57,4.90
2018,04,12,01,58,4.90
2018,04,12,01,59,4.90
2018,04,12,02,00,4.90
2018,04,12,02,01,4.90
2018,04,12,02,02,4.90
2018,04,12,02,03,4.90
2018,04,12,02,04,4.90
2018,04,12,02,05,4.90
2018,04,12,02,06,4.90
2018,04,12,02,07,4.90
2018,04,12,02,08,4.90
2018,04,12,02,09,5.00
2018,04,12,02,10,5.00
2018,04,12,02,11,5.00
2018,04,12,02,12,5.00
2018,04,12,02,13,4.90
2018,04,12,02,14,4.90
2018,04,12,02,15,4.80
2018,04,12,02,16,4.80
2018,04,12,02,17,4.70
2018,04,12,02,18,4.70
2018,04,12,02,19,4.70
2018,04,12,02,20,4.70
2018,04,12,02,21,4.60
2018,04,12,02,22,4.60
2018,04,12,02,23,4.60
2018,04,12,02,24,4.60
2018,04,12,02,25,4.50
2018,04,12,02,26,4.50
2018,04,12,02,27,4.50
2018,04,12,02,28,4.60
2018,04,12,02,29,4.60
2018,04,12,02,30,4.60
2018,04,12,02,31,4.60
2018,04,12,02,32,4.60
2018,04,12,02,33,4.60
2018,04,12,02,34,4.60
2018,04,12,02,35,4.60
2018,04,12,02,36,4.60
2018,04,12,02,37,4.60
2018,04,12,02,38,4.60
2018,04,12,02,39,4.60
2018,04,12,02,40,4.60
2018,04,12,02,41,4.60
2018,04,12,02,42,4.60
2018,04,12,02,43,4.70
2018,04,12,02,44,4.70
2018,04,12,02,45,4.70
2018,04,12,02,46,4.70
2018,04,12,02,47,4.70
2018,04,12,02,48,4.70
2018,04,12,02,49,4.70
2018,04,12,02,50,4.70
2018,04,12,02,51,4.70
2018,04,12,02,52,4.70
2018,04,12,02,53,4.70
2018,04,12,02,54,4.70
2018,04,12,02,55,4.70
2018,04,12,02,56,4.80
2018,04,12,02,57,4.80
2018,04,12,02,58,4.80
2018,04,12,02,59,4.80
2018,04,12,03,00,4.90
2018,04,12,03,01,4.90
2018,04,12,03,02,4.90
2018,04,12,03,03,4.90
2018,04,12,03,04,5.00
2018,04,12,03,05,5.00
2018,04,12,03,06,5.00
2018,04,12,03,07,5.10
2018,04,12,03,08,5.10
2018,04,12,03,09,5.10
2018,04,12,03,10,5.10
2018,04,12,03,11,5.20
2018,04,12,03,12,5.10
2018,04,12,03,13,5.10
2018,04,12,03,14,5.10
2018,04,12,03,15,5.10
2018,04,12,03,16,5.10
2018,04,12,03,17,5.10
2018,04,12,03,18,5.10
2018,04,12,03,19,5.10
2018,04,12,03,20,5.10
2018,04,12,03,21,5.10
2018,04,12,03,22,5.10
2018,04,12,03,23,5.10
2018,04,12,03,24,5.10
2018,04,12,03,25,5.10
2018,04,12,03,26,5.10
2018,04,12,03,27,5.10
2018,04,12,03,28,5.10
2018,04,12,03,29,5.10
2018,04,12,03,30,5.10
2018,04,12,03,31,5.10
2018,04,12,03,32,5.10
2018,04,12,03,33,5.10
2018,04,12,03,34,5.10
2018,04,12,03,35,5.10
2018,04,12,03,36,5.10
2018,04,12,03,37,5.10
2018,04,12,03,38,5.10
2018,04,12,03,39,5.10
2018,04,12,03,40,5.10
2018,04,12,03,41,5.10
2018,04,12,03,42,5.10
2018,04,12,03,43,5.10
2018,04,12,03,44,5.10
2018,04,12,03,45,5.10
2018,04,12,03,46,5.10
2018,04,12,03,47,5.10
2018,04,12,03,48,5.10
2018,04,12,03,49,5.10
2018,04,12,03,50,5.10
2018,04,12,03,51,5.00
2018,04,12,03,52,5.00
2018,04,12,03,53,5.00
2018,04,12,03,54,5.00
2018,04,12,03,55,5.00
2018,04,12,03,56,5.00
2018,04,12,03,57,5.10
2018,04,12,03,58,5.10
2018,04,12,03,59,5.10
2018,04,12,04,00,5.10
2018,04,12,04,01,5.00
2018,04,12,04,02,5.10
2018,04,12,04,03,5.00
2018,04,12,04,04,5.10
2018,04,12,04,05,5.10
2018,04,12,04,06,5.10
2018,04,12,04,07,5.10
2018,04,12,04,08,5.10
2018,04,12,04,09,5.10
2018,04,12,04,10,5.10
2018,04,12,04,11,5.10
2018,04,12,04,12,5.10
2018,04,12,04,13,5.10
2018,04,12,04,14,5.10
2018,04,12,04,15,5.10
2018,04,12,04,16,5.10
2018,04,12,04,17,5.20
2018,04,12,04,18,5.20
2018,04,12,04,19,5.20
2018,04,12,04,20,5.20
2018,04,12,04,21,5.20
2018,04,12,04,22,5.20
2018,04,12,04,23,5.10
2018,04,12,04,24,5.10
2018,04,12,04,25,5.10
2018,04,12,04,26,5.10
2018,04,12,04,27,5.00
2018,04,12,04,28,5.00
2018,04,12,04,29,5.00
2018,04,12,04,30,5.00
2018,04,12,04,31,5.00
2018,04,12,04,32,4.90
2018,04,12,04,33,4.90
2018,04,12,04,34,4.90
2018,04,12,04,35,4.90
2018,04,12,04,36,4.90
2018,04,12,04,37,4.90
2018,04,12,04,38,4.90
2018,04,12,04,39,4.90
2018,04,12,04,40,4.80
2018,04,12,04,41,4.80
2018,04,12,04,42,4.80
2018,04,12,04,43,4.80
2018,04,12,04,44,4.80
2018,04,12,04,45,4.80
2018,04,12,04,46,4.80
2018,04,12,04,47,4.80
2018,04,12,04,48,4.80
2018,04,12,04,49,4.80
2018,04,12,04,50,4.80
2018,04,12,04,51,4.70
2018,04,12,04,52,4.70
2018,04,12,04,53,4.70
2018,04,12,04,54,4.60
2018,04,12,04,55,4.60
2018,04,12,04,56,4.60
2018,04,12,04,57,4.50
2018,04,12,04,58,4.50
2018,04,12,04,59,4.50
2018,04,12,05,00,4.50
2018,04,12,05,01,4.50
2018,04,12,05,02,4.40
2018,04,12,05,03,4.40
2018,04,12,05,04,4.40
2018,04,12,05,05,4.40
2018,04,12,05,06,4.40
2018,04,12,05,07,4.40
2018,04,12,05,08,4.30
2018,04,12,05,09,4.30
2018,04,12,05,10,4.30
2018,04,12,05,11,4.30
2018,04,12,05,12,4.30
2018,04,12,05,13,4.30
2018,04,12,05,14,4.20
2018,04,12,05,15,4.20
2018,04,12,05,16,4.20
2018,04,12,05,17,4.20
2018,04,12,05,18,4.20
2018,04,12,05,19,4.20
2018,04,12,05,20,4.20
2018,04,12,05,21,4.20
2018,04,12,05,22,4.20
2018,04,12,05,23,4.10
2018,04,12,05,24,4.10
2018,04,12,05,25,4.10
2018,04,12,05,26,4.00
2018,04,12,05,27,4.00
2018,04,12,05,28,4.00
2018,04,12,05,29,4.00
2018,04,12,05,30,3.90
2018,04,12,05,31,3.90
2018,04,12,05,32,3.90
2018,04,12,05,33,3.90
2018,04,12,05,34,3.90
2018,04,12,05,35,3.90
2018,04,12,05,36,3.80
2018,04,12,05,37,3.80
2018,04,12,05,38,3.80
2018,04,12,05,39,3.80
2018,04,12,05,40,3.80
2018,04,12,05,41,3.80
2018,04,12,05,42,3.80
2018,04,12,05,43,3.80
2018,04,12,05,44,3.80
2018,04,12,05,45,3.80
2018,04,12,05,46,3.80
2018,04,12,05,47,3.80
2018,04,12,05,48,3.80
2018,04,12,05,49,3.80
2018,04,12,05,50,3.80
2018,04,12,05,51,3.80
2018,04,12,05,52,3.80
2018,04,12,05,53,3.80
2018,04,12,05,54,3.80
2018,04,12,05,55,3.80
2018,04,12,05,56,3.70
2018,04,12,05,57,3.70
2018,04,12,05,58,3.70
2018,04,12,05,59,3.60
2018,04,12,06,00,3.60
2018,04,12,06,01,3.60
2018,04,12,06,02,3.60
2018,04,12,06,03,3.60
2018,04,12,06,04,3.60
2018,04,12,06,05,3.50
2018,04,12,06,06,3.50
2018,04,12,06,07,3.50
2018,04,12,06,08,3.50
2018,04,12,06,09,3.50
2018,04,12,06,10,3.50
2018,04,12,06,11,3.50
2018,04,12,06,12,3.50
2018,04,12,06,13,3.50
2018,04,12,06,14,3.50
2018,04,12,06,15,3.50
2018,04,12,06,16,3.40
2018,04,12,06,17,3.40
2018,04,12,06,18,3.30
2018,04,12,06,19,3.30
2018,04,12,06,20,3.30
2018,04,12,06,21,3.30
2018,04,12,06,22,3.30
2018,04,12,06,23,3.30
2018,04,12,06,24,3.30
2018,04,12,06,25,3.30
2018,04,12,06,26,3.20
2018,04,12,06,27,3.20
2018,04,12,06,28,3.20
2018,04,12,06,29,3.30
2018,04,12,06,30,3.30
2018,04,12,06,31,3.30
2018,04,12,06,32,3.30
2018,04,12,06,33,3.30
2018,04,12,06,34,3.30
2018,04,12,06,35,3.30
2018,04,12,06,36,3.30
2018,04,12,06,37,3.30
2018,04,12,06,38,3.30
2018,04,12,06,39,3.30
2018,04,12,06,40,3.30
2018,04,12,06,41,3.30
2018,04,12,06,42,3.30
2018,04,12,06,43,3.40
2018,04,12,06,44,3.40
2018,04,12,06,45,3.40
2018,04,12,06,46,3.40
2018,04,12,06,47,3.40
2018,04,12,06,48,3.50
2018,04,12,06,49,3.50
2018,04,12,06,50,3.50
2018,04,12,06,51,3.50
2018,04,12,06,52,3.40
2018,04,12,06,53,3.40
2018,04,12,06,54,3.40
2018,04,12,06,55,3.40
2018,04,12,06,56,3.40
2018,04,12,06,57,3.40
2018,04,12,06,58,3.40
2018,04,12,06,59,3.50
2018,04,12,07,00,3.50
2018,04,12,07,01,3.50
2018,04,12,07,02,3.50
2018,04,12,07,03,3.50
2018,04,12,07,04,3.50
2018,04,12,07,05,3.50
2018,04,12,07,06,3.50
2018,04,12,07,07,3.50
2018,04,12,07,08,3.50
2018,04,12,07,09,3.50
2018,04,12,07,10,3.50
2018,04,12,07,11,3.50
2018,04,12,07,12,3.50
2018,04,12,07,13,3.60
2018,04,12,07,14,3.70
2018,04,12,07,15,3.70
2018,04,12,07,16,3.70
2018,04,12,07,17,3.80
2018,04,12,07,18,3.80
2018,04,12,07,19,3.80
2018,04,12,07,20,3.80
2018,04,12,07,21,3.80
2018,04,12,07,22,3.90
2018,04,12,07,23,3.80
2018,04,12,07,24,3.80
2018,04,12,07,25,3.80
2018,04,12,07,26,3.70
2018,04,12,07,27,3.70
2018,04,12,07,28,3.70
2018,04,12,07,29,3.70
2018,04,12,07,30,3.70
2018,04,12,07,31,3.70
2018,04,12,07,32,3.70
2018,04,12,07,33,3.80
2018,04,12,07,34,3.80
2018,04,12,07,35,3.80
2018,04,12,07,36,3.80
2018,04,12,07,37,3.90
2018,04,12,07,38,3.90
2018,04,12,07,39,3.90
2018,04,12,07,40,4.00
2018,04,12,07,41,4.00
2018,04,12,07,42,4.00
2018,04,12,07,43,4.10
2018,04,12,07,44,4.10
2018,04,12,07,45,4.10
2018,04,12,07,46,4.20
2018,04,12,07,47,4.20
2018,04,12,07,48,4.30
2018,04,12,07,49,4.30
2018,04,12,07,50,4.30
2018,04,12,07,51,4.40
2018,04,12,07,52,4.40
2018,04,12,07,53,4.40
2018,04,12,07,54,4.30
2018,04,12,07,55,4.30
2018,04,12,07,56,4.30
2018,04,12,07,57,4.30
2018,04,12,07,58,4.40
2018,04,12,07,59,4.40
2018,04,12,08,00,4.40
2018,04,12,08,01,4.40
2018,04,12,08,02,4.50
2018,04,12,08,03,4.50
2018,04,12,08,04,4.60
2018,04,12,08,05,4.60
2018,04,12,08,06,4.60
2018,04,12,08,07,4.70
2018,04,12,08,08,4.70
2018,04,12,08,09,4.80
2018,04,12,08,10,4.80
2018,04,12,08,11,4.80
2018,04,12,08,12,4.90
2018,04,12,08,13,4.90
2018,04,12,08,14,5.00
2018,04,12,08,15,5.00
2018,04,12,08,16,5.10
2018,04,12,08,17,5.10
2018,04,12,08,18,5.10
2018,04,12,08,19,5.20
2018,04,12,08,20,5.20
2018,04,12,08,21,5.20
2018,04,12,08,22,5.30
2018,04,12,08,23,5.30
2018,04,12,08,24,5.30
2018,04,12,08,25,5.40
2018,04,12,08,26,5.40
2018,04,12,08,27,5.40
2018,04,12,08,28,5.50
2018,04,12,08,29,5.50
2018,04,12,08,30,5.60
2018,04,12,08,31,5.60
2018,04,12,08,32,5.70
2018,04,12,08,33,5.70
2018,04,12,08,34,5.70
2018,04,12,08,35,5.70
2018,04,12,08,36,5.80
2018,04,12,08,37,5.80
2018,04,12,08,38,5.80
2018,04,12,08,39,5.80
2018,04,12,08,40,5.80
2018,04,12,08,41,5.90
2018,04,12,08,42,5.90
2018,04,12,08,43,5.90
2018,04,12,08,44,6.00
2018,04,12,08,45,6.00
2018,04,12,08,46,6.10
2018,04,12,08,47,6.10
2018,04,12,08,48,6.20
2018,04,12,08,49,6.20
2018,04,12,08,50,6.20
2018,04,12,08,51,6.30
2018,04,12,08,52,6.30
2018,04,12,08,53,6.30
2018,04,12,08,54,6.40
2018,04,12,08,55,6.40
2018,04,12,08,56,6.50
2018,04,12,08,57,6.50
2018,04,12,08,58,6.50
2018,04,12,08,59,6.50
2018,04,12,09,00,6.60
2018,04,12,09,01,6.60
2018,04,12,09,02,6.60
2018,04,12,09,03,6.60
2018,04,12,09,04,6.70
2018,04,12,09,05,6.70
2018,04,12,09,06,6.70
2018,04,12,09,07,6.80
2018,04,12,09,08,6.80
2018,04,12,09,09,6.80
2018,04,12,09,10,6.80
2018,04,12,09,11,6.80
2018,04,12,09,12,6.90
2018,04,12,09,13,6.90
2018,04,12,09,14,6.90
2018,04,12,09,15,6.90
2018,04,12,09,16,6.90
2018,04,12,09,17,6.90
2018,04,12,09,18,7.00
2018,04,12,09,19,7.00
2018,04,12,09,20,7.00
2018,04,12,09,21,7.10
2018,04,12,09,22,7.10
2018,04,12,09,23,7.10
2018,04,12,09,24,7.10
2018,04,12,09,25,7.10
2018,04,12,09,26,7.10
2018,04,12,09,27,7.20
2018,04,12,09,28,7.20
2018,04,12,09,29,7.20
2018,04,12,09,30,7.20
2018,04,12,09,31,7.20
2018,04,12,09,32,7.20
2018,04,12,09,33,7.20
2018,04,12,09,34,7.20
2018,04,12,09,35,7.20
2018,04,12,09,36,7.30
2018,04,12,09,37,7.30
2018,04,12,09,38,7.30
2018,04,12,09,39,7.30
2018,04,12,09,40,7.30
2018,04,12,09,41,7.40
2018,04,12,09,42,7.40
2018,04,12,09,43,7.40
2018,04,12,09,44,7.40
2018,04,12,09,45,7.40
2018,04,12,09,46,7.40
2018,04,12,09,47,7.50
2018,04,12,09,48,7.50
2018,04,12,09,49,7.50
2018,04,12,09,50,7.60
2018,04,12,09,51,7.60
2018,04,12,09,52,7.60
2018,04,12,09,53,7.60
2018,04,12,09,54,7.60
2018,04,12,09,55,7.60
2018,04,12,09,56,7.60
2018,04,12,09,57,7.60
2018,04,12,09,58,7.60
2018,04,12,09,59,7.60
2018,04,12,10,00,7.60
2018,04,12,10,01,7.70
2018,04,12,10,02,7.70
2018,04,12,10,03,7.70
2018,04,12,10,04,7.70
2018,04,12,10,05,7.80
2018,04,12,10,06,7.80
2018,04,12,10,07,7.80
2018,04,12,10,08,7.90
2018,04,12,10,09,7.90
2018,04,12,10,10,8.00
2018,04,12,10,11,8.00
2018,04,12,10,12,8.00
2018,04,12,10,13,8.10
2018,04,12,10,14,8.10
2018,04,12,10,15,8.10
2018,04,12,10,16,8.10
2018,04,12,10,17,8.10
2018,04,12,10,18,8.20
2018,04,12,10,19,8.20
2018,04,12,10,20,8.20
2018,04,12,10,21,8.20
2018,04,12,10,22,8.20
2018,04,12,10,23,8.20
2018,04,12,10,24,8.20
2018,04,12,10,25,8.20
2018,04,12,10,26,8.20
2018,04,12,10,27,8.20
2018,04,12,10,28,8.20
2018,04,12,10,29,8.20
2018,04,12,10,30,8.20
2018,04,12,10,31,8.30
2018,04,12,10,32,8.30
2018,04,12,10,33,8.30
2018,04,12,10,34,8.30
2018,04,12,10,35,8.30
2018,04,12,10,36,8.30
2018,04,12,10,37,8.40
2018,04,12,10,38,8.40
2018,04,12,10,39,8.30
2018,04,12,10,40,8.30
2018,04,12,10,41,8.30
2018,04,12,10,42,8.30
2018,04,12,10,43,8.30
2018,04,12,10,44,8.30
2018,04,12,10,45,8.30
2018,04,12,10,46,8.20
2018,04,12,10,47,8.20
2018,04,12,10,48,8.20
2018,04,12,10,49,8.10
2018,04,12,10,50,8.10
2018,04,12,10,51,8.00
2018,04,12,10,52,8.00
2018,04,12,10,53,7.90
2018,04,12,10,54,7.90
2018,04,12,10,55,7.80
2018,04,12,10,56,7.80
2018,04,12,10,57,7.80
2018,04,12,10,58,7.80
2018,04,12,10,59,7.70
2018,04,12,11,00,7.70
2018,04,12,11,01,7.70
2018,04,12,11,02,7.70
2018,04,12,11,03,7.60
2018,04,12,11,04,7.60
2018,04,12,11,05,7.60
2018,04,12,11,06,7.60
2018,04,12,11,07,7.60
2018,04,12,11,08,7.60
2018,04,12,11,09,7.60
2018,04,12,11,10,7.60
2018,04,12,11,11,7.60
2018,04,12,11,12,7.60
2018,04,12,11,13,7.60
2018,04,12,11,14,7.60
2018,04,12,11,15,7.60
2018,04,12,11,16,7.50
2018,04,12,11,17,7.60
2018,04,12,11,18,7.60
2018,04,12,11,19,7.60
2018,04,12,11,20,7.60
2018,04,12,11,21,7.60
2018,04,12,11,22,7.60
2018,04,12,11,23,7.60
2018,04,12,11,24,7.60
2018,04,12,11,25,7.60
2018,04,12,11,26,7.60
2018,04,12,11,27,7.70
2018,04,12,11,28,7.70
2018,04,12,11,29,7.70
2018,04,12,11,30,7.70
2018,04,12,11,31,7.70
2018,04,12,11,32,7.80
2018,04,12,11,33,7.80
2018,04,12,11,34,7.80
2018,04,12,11,35,7.80
2018,04,12,11,36,7.80
2018,04,12,11,37,7.80
2018,04,12,11,38,7.80
2018,04,12,11,39,7.80
2018,04,12,11,40,7.70
2018,04,12,11,41,7.70
2018,04,12,11,42,7.70
2018,04,12,11,43,7.80
2018,04,12,11,44,7.80
2018,04,12,11,45,7.80
2018,04,12,11,46,7.80
2018,04,12,11,47,7.90
2018,04,12,11,48,7.90
2018,04,12,11,49,8.00
2018,04,12,11,50,8.00
2018,04,12,11,51,8.10
2018,04,12,11,52,8.20
2018,04,12,11,53,8.30
2018,04,12,11,54,8.40
2018,04,12,11,55,8.50
2018,04,12,11,56,8.60
2018,04,12,11,57,8.70
2018,04,12,11,58,8.70
2018,04,12,11,59,8.80
2018,04,12,12,00,8.70
2018,04,12,12,01,8.70
2018,04,12,12,02,8.80
2018,04,12,12,03,8.80
2018,04,12,12,04,8.80
2018,04,12,12,05,8.90
2018,04,12,12,06,8.90
2018,04,12,12,07,9.00
2018,04,12,12,08,9.00
2018,04,12,12,09,9.10
2018,04,12,12,10,9.10
2018,04,12,12,11,9.10
2018,04,12,12,12,9.10
2018,04,12,12,13,9.00
2018,04,12,12,14,9.00
2018,04,12,12,15,9.00
2018,04,12,12,16,9.00
2018,04,12,12,17,9.00
2018,04,12,12,18,9.10
2018,04,12,12,19,9.10
2018,04,12,12,20,9.10
2018,04,12,12,21,9.00
2018,04,12,12,22,9.00
2018,04,12,12,23,9.00
2018,04,12,12,24,8.90
2018,04,12,12,25,8.90
2018,04,12,12,26,8.90
2018,04,12,12,27,8.90
2018,04,12,12,28,8.90
2018,04,12,12,29,8.90
2018,04,12,12,30,8.80
2018,04,12,12,31,8.80
2018,04,12,12,32,8.70
2018,04,12,12,33,8.70
2018,04,12,12,34,8.70
2018,04,12,12,35,8.60
2018,04,12,12,36,8.60
2018,04,12,12,37,8.60
2018,04,12,12,38,8.50
2018,04,12,12,39,8.50
2018,04,12,12,40,8.40
2018,04,12,12,41,8.40
2018,04,12,12,42,8.30
2018,04,12,12,43,8.30
2018,04,12,12,44,8.30
2018,04,12,12,45,8.20
2018,04,12,12,46,8.20
2018,04,12,12,47,8.20
2018,04,12,12,48,8.20
2018,04,12,12,49,8.10
2018,04,12,12,50,8.10
2018,04,12,12,51,8.10
2018,04,12,12,52,8.00
2018,04,12,12,53,8.00
2018,04,12,12,54,7.90
2018,04,12,12,55,7.90
2018,04,12,12,56,7.90
2018,04,12,12,57,7.90
2018,04,12,12,58,7.90
2018,04,12,12,59,7.90
2018,04,12,13,00,7.90
2018,04,12,13,01,7.90
2018,04,12,13,02,7.90
2018,04,12,13,03,7.90
2018,04,12,13,04,7.80
2018,04,12,13,05,7.80
2018,04,12,13,06,7.80
2018,04,12,13,07,7.80
2018,04,12,13,08,7.70
2018,04,12,13,09,7.70
2018,04,12,13,10,7.70
2018,04,12,13,11,7.70
2018,04,12,13,12,7.60
2018,04,12,13,13,7.60
2018,04,12,13,14,7.50
2018,04,12,13,15,7.40
2018,04,12,13,16,7.40
2018,04,12,13,17,7.40
2018,04,12,13,18,7.40
2018,04,12,13,19,7.40
2018,04,12,13,20,7.40
2018,04,12,13,21,7.40
2018,04,12,13,22,7.40
2018,04,12,13,23,7.40
2018,04,12,13,24,7.40
2018,04,12,13,25,7.40
2018,04,12,13,26,7.40
2018,04,12,13,27,7.40
2018,04,12,13,28,7.50
2018,04,12,13,29,7.50
2018,04,12,13,30,7.60
2018,04,12,13,31,7.60
2018,04,12,13,32,7.60
2018,04,12,13,33,7.70
2018,04,12,13,34,7.70
2018,04,12,13,35,7.80
2018,04,12,13,36,7.90
2018,04,12,13,37,8.10
2018,04,12,13,38,8.20
2018,04,12,13,39,8.30
2018,04,12,13,40,8.30
2018,04,12,13,41,8.30
2018,04,12,13,42,8.30
2018,04,12,13,43,8.40
2018,04,12,13,44,8.40
2018,04,12,13,45,8.40
2018,04,12,13,46,8.40
2018,04,12,13,47,8.40
2018,04,12,13,48,8.40
2018,04,12,13,49,8.40
2018,04,12,13,50,8.30
2018,04,12,13,51,8.30
2018,04,12,13,52,8.30
2018,04,12,13,53,8.30
2018,04,12,13,54,8.30
2018,04,12,13,55,8.30
2018,04,12,13,56,8.30
2018,04,12,13,57,8.30
2018,04,12,13,58,8.20
2018,04,12,13,59,8.20
2018,04,12,14,00,8.20
2018,04,12,14,01,8.20
2018,04,12,14,02,8.20
2018,04,12,14,03,8.20
2018,04,12,14,04,8.20
2018,04,12,14,05,8.20
2018,04,12,14,06,8.20
2018,04,12,14,07,8.20
2018,04,12,14,08,8.20
2018,04,12,14,09,8.20
2018,04,12,14,10,8.20
2018,04,12,14,11,8.20
2018,04,12,14,12,8.20
2018,04,12,14,13,8.20
2018,04,12,14,14,8.20
2018,04,12,14,15,8.20
2018,04,12,14,16,8.20
2018,04,12,14,17,8.20
2018,04,12,14,18,8.20
2018,04,12,14,19,8.20
2018,04,12,14,20,8.20
2018,04,12,14,21,8.20
2018,04,12,14,22,8.20
2018,04,12,14,23,8.20
2018,04,12,14,24,8.30
2018,04,12,14,25,8.30
2018,04,12,14,26,8.40
2018,04,12,14,27,8.50
2018,04,12,14,28,8.60
2018,04,12,14,29,8.60
2018,04,12,14,30,8.60
2018,04,12,14,31,8.70
2018,04,12,14,32,8.60
2018,04,12,14,33,8.60
2018,04,12,14,34,8.60
2018,04,12,14,35,8.60
2018,04,12,14,36,8.60
2018,04,12,14,37,8.60
2018,04,12,14,38,8.50
2018,04,12,14,39,8.50
2018,04,12,14,40,8.60
2018,04,12,14,41,8.60
2018,04,12,14,42,8.70
2018,04,12,14,43,8.70
2018,04,12,14,44,8.80
2018,04,12,14,45,8.80
2018,04,12,14,46,8.70
2018,04,12,14,47,8.60
2018,04,12,14,48,8.50
2018,04,12,14,49,8.40
2018,04,12,14,50,8.30
2018,04,12,14,51,8.30
2018,04,12,14,52,8.30
2018,04,12,14,53,8.30
2018,04,12,14,54,8.40
2018,04,12,14,55,8.40
2018,04,12,14,56,8.50
2018,04,12,14,57,8.50
2018,04,12,14,58,8.50
2018,04,12,14,59,8.60
2018,04,12,15,00,8.60
2018,04,12,15,01,8.70
2018,04,12,15,02,8.70
2018,04,12,15,03,8.70
2018,04,12,15,04,8.70
2018,04,12,15,05,8.70
2018,04,12,15,06,8.60
2018,04,12,15,07,8.60
2018,04,12,15,08,8.60
2018,04,12,15,09,8.60
2018,04,12,15,10,8.60
2018,04,12,15,11,8.60
2018,04,12,15,12,8.60
2018,04,12,15,13,8.60
2018,04,12,15,14,8.60
2018,04,12,15,15,8.60
2018,04,12,15,16,8.60
2018,04,12,15,17,8.70
2018,04,12,15,18,8.70
2018,04,12,15,19,8.80
2018,04,12,15,20,8.90
2018,04,12,15,21,9.00
2018,04,12,15,22,9.20
2018,04,12,15,23,9.30
2018,04,12,15,24,9.40
2018,04,12,15,25,9.50
2018,04,12,15,26,9.70
2018,04,12,15,27,9.70
2018,04,12,15,28,9.70
2018,04,12,15,29,9.70
2018,04,12,15,30,9.60
2018,04,12,15,31,9.60
2018,04,12,15,32,9.50
2018,04,12,15,33,9.50
2018,04,12,15,34,9.40
2018,04,12,15,35,9.50
2018,04,12,15,36,9.50
2018,04,12,15,37,9.60
2018,04,12,15,38,9.70
2018,04,12,15,39,9.70
2018,04,12,15,40,9.80
2018,04,12,15,41,9.80
2018,04,12,15,42,9.80
2018,04,12,15,43,9.90
2018,04,12,15,44,10.00
2018,04,12,15,45,10.10
2018,04,12,15,46,10.10
2018,04,12,15,47,10.20
2018,04,12,15,48,10.30
2018,04,12,15,49,10.40
2018,04,12,15,50,10.40
2018,04,12,15,51,10.40
2018,04,12,15,52,10.50
2018,04,12,15,53,10.50
2018,04,12,15,54,10.60
2018,04,12,15,55,10.60
2018,04,12,15,56,10.60
2018,04,12,15,57,10.60
2018,04,12,15,58,10.70
2018,04,12,15,59,10.70
2018,04,12,16,00,10.70
2018,04,12,16,01,10.80
2018,04,12,16,02,10.90
2018,04,12,16,03,10.90
2018,04,12,16,04,10.90
2018,04,12,16,05,10.90
2018,04,12,16,06,10.80
2018,04,12,16,07,10.80
2018,04,12,16,08,10.80
2018,04,12,16,09,10.80
2018,04,12,16,10,10.80
2018,04,12,16,11,10.70
2018,04,12,16,12,10.60
2018,04,12,16,13,10.40
2018,04,12,16,14,10.30
2018,04,12,16,15,10.30
2018,04,12,16,16,10.20
2018,04,12,16,17,10.20
2018,04,12,16,18,10.20
2018,04,12,16,19,10.20
2018,04,12,16,20,10.20
2018,04,12,16,21,10.20
2018,04,12,16,22,10.30
2018,04,12,16,23,10.30
2018,04,12,16,24,10.40
2018,04,12,16,25,10.40
2018,04,12,16,26,10.50
2018,04,12,16,27,10.50
2018,04,12,16,28,10.60
2018,04,12,16,29,10.70
2018,04,12,16,30,10.80
2018,04,12,16,31,10.80
2018,04,12,16,32,10.80
2018,04,12,16,33,10.90
2018,04,12,16,34,10.90
2018,04,12,16,35,10.90
2018,04,12,16,36,10.90
2018,04,12,16,37,10.90
2018,04,12,16,38,11.00
2018,04,12,16,39,11.00
2018,04,12,16,40,11.10
2018,04,12,16,41,11.10
2018,04,12,16,42,11.20
2018,04,12,16,43,11.20
2018,04,12,16,44,11.10
2018,04,12,16,45,11.10
2018,04,12,16,46,11.10
2018,04,12,16,47,11.10
2018,04,12,16,48,11.10
2018,04,12,16,49,11.00
2018,04,12,16,50,11.00
2018,04,12,16,51,10.90
2018,04,12,16,52,11.00
2018,04,12,16,53,11.00
2018,04,12,16,54,11.10
2018,04,12,16,55,11.10
2018,04,12,16,56,11.10
2018,04,12,16,57,11.20
2018,04,12,16,58,11.30
2018,04,12,16,59,11.30
2018,04,12,17,00,11.40
2018,04,12,17,01,11.30
2018,04,12,17,02,11.40
2018,04,12,17,03,11.40
2018,04,12,17,04,11.40
2018,04,12,17,05,11.40
2018,04,12,17,06,11.40
2018,04,12,17,07,11.40
2018,04,12,17,08,11.40
2018,04,12,17,09,11.30
2018,04,12,17,10,11.30
2018,04,12,17,11,11.30
2018,04,12,17,12,11.30
2018,04,12,17,13,11.20
2018,04,12,17,14,11.20
2018,04,12,17,15,11.20
2018,04,12,17,16,11.20
2018,04,12,17,17,11.20
2018,04,12,17,18,11.20
2018,04,12,17,19,11.20
2018,04,12,17,20,11.20
2018,04,12,17,21,11.20
2018,04,12,17,22,11.20
2018,04,12,17,23,11.20
2018,04,12,17,24,11.20
2018,04,12,17,25,11.20
2018,04,12,17,26,11.30
2018,04,12,17,27,11.30
2018,04,12,17,28,11.30
2018,04,12,17,29,11.40
2018,04,12,17,30,11.50
2018,04,12,17,31,11.60
2018,04,12,17,32,11.60
2018,04,12,17,33,11.70
2018,04,12,17,34,11.60
2018,04,12,17,35,11.60
2018,04,12,17,36,11.60
2018,04,12,17,37,11.50
2018,04,12,17,38,11.50
2018,04,12,17,39,11.50
2018,04,12,17,40,11.40
2018,04,12,17,41,11.40
2018,04,12,17,42,11.40
2018,04,12,17,43,11.40
2018,04,12,17,44,11.40
2018,04,12,17,45,11.40
2018,04,12,17,46,11.40
2018,04,12,17,47,11.40
2018,04,12,17,48,11.40
2018,04,12,17,49,11.30
2018,04,12,17,50,11.30
2018,04,12,17,51,11.30
2018,04,12,17,52,11.30
2018,04,12,17,53,11.30
2018,04,12,17,54,11.40
2018,04,12,17,55,11.40
2018,04,12,17,56,11.50
2018,04,12,17,57,11.50
2018,04,12,17,58,11.60
2018,04,12,17,59,11.60
2018,04,12,18,00,11.70